STARLINK-1587, 46157

Orbit data source: Space-Track

STARLINK-1587, 46157 is a payload satellite owned by SpaceX/Seattle (US) in LEO that was launched on Tue, 18 Aug 2020 UTC via an FALCON 9 launch vehicle from the Air Force Eastern Test Range (AFETR). Payload-class satellites include a variety of spacecraft equipped with specific instruments for various scientific and technological missions. These include communications satellites like Starlink; space stations such as the ISS; scientific satellites like the Hubble; Earth observation satellites from companies like Planet Labs, Umbra, and HawkEye 360; GPS; miniature CubeSats for education and research; and military/defense satellites.

Loading next visibility...
Identifier
46157, 2020-057AS
Orbit
LEO
Country
Flag of USUS
Related business
Manufacturer
SpaceX/Seattle
Mission
Partially operational Commercial Communications
Bus & Motor
STARLINK, Unknown motor
Mass
260 kg wet, ~248 kg dry
Launch date (UTC)
2020-08-18 (5 years ago)
Launch vehicle
FALCON 9
Launch site
Air Force Eastern Test Range (AFETR)
Object type
Payload
Rocket body
Debris
Shape & HBR
Box + 1 Pan, 10.1 m
Radar Cross Section
13.562 m², Large (>1 m²)

Expand to show TLE details & history
Last TLE update: 13 hours ago

TLE from 13 hours ago
0 STARLINK-1587
1 46157U 20057AS  25340.66670139  .00089766  00000-0  15587-2 0  9993
2 46157  53.0499 315.4894 0013517  23.4125 314.3075 15.50018140  5781
Epoch: 2025-12-06T16:00Z
TLE epoch observation values (Epoch: 2025-12-06T16:00:03.000Z)
Latitude
-17.89853°
Longitude
-14.19379°
Altitude
415.148 km
Speed
7.666 km/s
True Right ascension
20h 06m 02s
True Declination
-17° 47' 35"
Sunlit
Object was in daylight at epoch
Visualization orbit readout
Latitude
Unknown
Longitude
Unknown
Altitude
Unknown
Speed
Unknown
Apparent Right ascension
Unknown
Apparent Declination
Unknown
Sunlit
N/A
Visualization observer readout
Local Sidereal Time
03:15:17
Azimuth
Unknown
Elevation
Unknown
Doppler factor
Unknown
Orbital elements
Apogee altitude
426.134 km
Perigee altitude
407.765 km
Semi-major axis
6,795.087 km
Eccentricity
0.00135
Inclination
53.0499°
RAAN
315.4894°
Arg. of periapsis
23.4125°
True anomaly
314.19653°
Mean anomaly
314.3075°
Eccentric anomaly
314.25203°
Mean motion
3.87481 °/min
Orbital period
92.91 mins
BSTAR
0.0015587
Loading maneuver chart data...
Computing Atmospheric mass density...

Documentation

Showing up to 5 results
|